Погода в Яснополянском

Россия / Республика Крым     45°56′30″N   34°21′00″E
темп.,
°C
ветер,
м/с
пор.,
м/с
влажн.,
%
обл.,
%
осадки,
мм/ч
давл.,
гПа
погр.,
м
20 июня, вс
вс2000:00+22св71283100 7.8 1010348
03:00+22в6108575 9.9 1009332
06:00+22в711794 0.1 1009460
09:00+23вюв78856 1.1 1009503
12:00+22в898092 1.0 1010455
15:00+23в8878100 1.1 1011419
18:00+23в67770 0.0 1010355
21:00+22вюв46820 0.0 1011169
21 июня, пн
пн2100:00+22ююв22865 0.0 101032
03:00+21юз22885 0.0 101041
06:00+21св22860 0.0 101180
09:00+23св22740 0.0 1011245
12:00+24св22690 0.0 1011307
15:00+26в33645 0.0 1010365
18:00+23в688364 0.0 1010274
21:00+23всв337916 0.6 101048
22 июня, вт
вт2200:00+23с12760 0.1 100912
03:00+22ссв33780 0.1 100949
06:00+22в22795 0.0 100932
09:00+24в447484 0.0 1010303
12:00+24всв6583100 0.3 1010400
15:00+24в768630 0.4 1010351
18:00+24в67825 0.0 1011313
21:00+23вюв4786100 0.1 1011175
23 июня, ср
ср2300:00+22в118899 0.0 101124
03:00+22юв118749 0.0 101123
06:00+22юв11835 0.0 101134
09:00+24вюв56773 0.0 1013397
12:00+24в5676100 0.0 1013386
15:00+25в557696 0.0 1013430
18:00+24в667977 0.1 1014220
21:00+23юв45849 0.1 1014127
24 июня, чт
чт2400:00+23юз11865 0.0 101413
03:00+22с11855 0.0 101315
06:00+22зсз11845 0.0 101420
09:00+25ю12727 0.0 1014241
12:00+26ссв326433 0.0 1014632
15:00+26в43656 0.0 1014415
18:00+26вюв55685 0.0 1014293
21:00+24юв4778100 0.1 1014119